Preview of NWS' New Version of Forecast
This preview is not operational and should not be used for support decisions.

Regional Weather Roundup (RWR)

Issued by National Weather Service (NWS)

                            
000
ASUS43 KDMX 191201
RWRIA 

WEATHER ROUNDUP FOR IOWA
NATIONAL WEATHER SERVICE DES MOINES IA
700 AM CDT SUN MAY 19 2019

NOTE: "FAIR" INDICATES FEW OR NO CLOUDS BELOW 12,000 FEET WITH NO
SIGNIFICANT WEATHER AND/OR OBSTRUCTIONS TO VISIBILITY.

* - THESE STATIONS ARE NOT NWS STATIONS...THUS NOT UNDER NWS
QUALITY CONTROL.  THEY ALSO DO NOT REPORT WEATHER SUCH 
AS PRECIPITATION OR FOG.  

IAZ001>003-012>014-020>022-031>034-043>046-191300-
   NORTHWEST IOWA
  
CITY           SKY/WX    TMP DP  RH WIND       PRES   REMARKS
CARROLL *      CLOUDY    57  55  94 W13       29.60R                  
CHEROKEE *     DRIZZLE   48  48 100 N6        29.64R                  
DENISON *      CLOUDY    52  52 100 NW15G21   29.65R FOG              
LE MARS *      CLOUDY    48  48 100 NW9       29.67R                  
SHELDON *      CLOUDY    46  46 100 N12       29.64R FOG              
SIOUX CITY     CLOUDY    49  47  93 NW13      29.68R                  
6HR MIN TEMP:  49; 6HR MAX TEMP:  56;                                

SPENCER        LGT RAIN  49  46  90 N9        29.63R FOG              
6HR MIN TEMP:  49; 6HR MAX TEMP:  53; 6HR PCP:  0.09;                

STORM LAKE *   FOG       48  48 100 N12       29.60R VSB 3/4          
$$
 
IAZ055>058-069>071-079>083-090>094-191300-
   SOUTHWEST IOWA
  
CITY           SKY/WX    TMP DP  RH WIND       PRES   REMARKS
ATLANTIC *     CLOUDY    55  55 100 W9        29.63R                  
AUDUBON *      CLOUDY    55  52  88 CALM      29.63R                  
CLARINDA *     CLOUDY    57  54  88 MISG      29.66R                  
COUNCIL BLFS * CLOUDY    54  54 100 NW13G23   29.64R                  
CRESTON *      LGT RAIN  57  55  94 NW17      29.61R                  
HARLAN  *      CLOUDY    55  54  94 W16       29.64R                  
LAMONI         CLOUDY    57  55  93 W6        29.60R                  
6HR MIN TEMP:  56; 6HR MAX TEMP:  60; 6HR PCP:  0.14;                

RED OAK *      CLOUDY    55  55 100 NW9G15    29.65R                  
SHENANDOAH *   CLOUDY    57  54  88 NW10      29.65R                  
$$
 
IAZ047>049-059>061-072>074-084-191300-
   CENTRAL IOWA
  
CITY           SKY/WX    TMP DP  RH WIND       PRES   REMARKS
AMES           CLOUDY    55  52  89 N9        29.58R                  
6HR MIN TEMP:  55; 6HR MAX TEMP:  59; 6HR PCP:  0.09;                

ANKENY *       CLOUDY    57  55  94 MISG      29.59R                  
BOONE *        CLOUDY    57  57 100 NW10      29.58R                  
CHARITON *     CLOUDY    57  57 100 NW7       29.57R                  
DES MOINES     LGT RAIN  58  56  93 W6        29.58R                  
6HR MIN TEMP:  57; 6HR MAX TEMP:  59; 6HR PCP: TRACE;                

GRINNELL*      CLOUDY    56  55  93 W10       29.56F                  
KNOXVILLE *    LGT RAIN  57  57 100 NW10G17   29.56S                  
MARSHALLTOWN   CLOUDY    51  50  96 W12       29.55R                  
6HR MIN TEMP:  50; 6HR MAX TEMP:  64; 6HR PCP:  0.03;                

NEWTON *       CLOUDY    57  57 100 NW7       29.56                   
PELLA *        CLOUDY    58  57  95 W10G17    29.57R                  
PERRY *        CLOUDY    58  58 100 W8        29.60R                  
$$
 
IAZ004>006-015-016-023>025-035-036-191300-
   NORTH CENTRAL IOWA
  
CITY           SKY/WX    TMP DP  RH WIND       PRES   REMARKS
ALGONA *       CLOUDY    46  46 100 N12G18    29.59R                  
CLARION *      CLOUDY    48  48 100 N12G18    29.59R                  
ESTHERVILLE    LGT RAIN  45  44  97 N15       29.62R FOG              
6HR MIN TEMP:  45; 6HR MAX TEMP:  49; 6HR PCP:  0.26;                

FORT DODGE *   CLOUDY    50  48  93 N8        29.61R                  
MASON CITY     LGT RAIN  46  45  96 N14G24    29.56R                  
6HR MIN TEMP:  46; 6HR MAX TEMP:  54; 6HR PCP:  0.30;                

FOREST CITY *  LGT RAIN  46  45  93 N10       29.58R                  
IOWA FALLS *   CLOUDY    50  48  93 NW10      29.59R                  
$$

IAZ007>011-017>019-026>030-037>042-050>054-066-191300-
   NORTHEAST IOWA
  
CITY           SKY/WX    TMP DP  RH WIND       PRES   REMARKS
CEDAR RAPIDS   LGT RAIN  59  59 100 S9        29.51R                  
6HR MIN TEMP:  59; 6HR MAX TEMP:  64; 6HR PCP:  0.03;                

CHARLES CITY * PTSUNNY   46  46 100 N18       29.50R FOG              
CLINTON *      CLOUDY    63  61  93 S13       29.57S                  
DECORAH *      CLOUDY    52  52 100 E8G14     29.46S FOG              
DUBUQUE        CLOUDY    62  60  93 S15       29.52F                  
6HR MIN TEMP:  62; 6HR MAX TEMP:  65; 6HR PCP: TRACE;                

MONTICELLO *   PTSUNNY   61  61 100 S10       29.51S                  
OELWEIN *      CLOUDY    52  52 100 SW20G25   29.49R FOG              
WATERLOO       CLOUDY    50  48  93 W12       29.51R                  
6HR MIN TEMP:  50; 6HR MAX TEMP:  65;                                

$$
 
IAZ064-065-067-068-078-191300-
   EAST CENTRAL IOWA
  
CITY           SKY/WX    TMP DP  RH WIND       PRES   REMARKS
DAVENPORT      CLOUDY    63  60  90 S14       29.57S                  
6HR MIN TEMP:  63; 6HR MAX TEMP:  68; 6HR PCP:  0.01;                

IOWA CITY      PTSUNNY   62  59  90 S8        29.55S                  
6HR MIN TEMP:  61; 6HR MAX TEMP:  66; 6HR PCP:  0.03;                

MT. PLEASANT * CLOUDY    63  63 100 S10       29.56S                  
MUSCATINE *    CLOUDY    64  61  88 S9        29.56R                  
QUAD CITIES    PTSUNNY   65  61  87 S14G21    29.56R                  
6HR MIN TEMP:  64; 6HR MAX TEMP:  70; 6HR PCP: TRACE;                

$$
 
IAZ062-063-075>077-085>089-095>099-191300-
   SOUTHEAST IOWA
  
CITY           SKY/WX    TMP DP  RH WIND       PRES   REMARKS
BURLINGTON     CLOUDY    63  59  87 S10       29.57F                  
6HR MIN TEMP:  63; 6HR MAX TEMP:  67;                                

FAIRFIELD *    CLOUDY    61  61 100 SW3       29.54F                  
FORT MADISON * CLOUDY    63  63 100 S7        29.58F                  
KEOKUK *       CLOUDY    63  61  94 S6        29.57S                  
OSKALOOSA *    CLOUDY    59  57  92 W8        29.56R                  
OTTUMWA        CLOUDY    60  57  89 W6        29.55R                  
6HR MIN TEMP:  59; 6HR MAX TEMP:  64; 6HR PCP:  0.03;                

WASHINGTON *   PTSUNNY   61  61 100 SW8       29.56R                  
$$

ABBREVIATIONS USED IN REMARKS
   TC - TEMPERATURES IN CELSIUS
  WCI - WIND CHILL INDEX
   HX - HEAT INDEX
  VSB - VISIBILITY  
$$